Station History


Daily Summary for March 13, 2012 Units:  English    Metric   Both
« Previous Day
Next Day »
Daily Weekly Monthly Yearly Custom
  High: Low: Average:
Temperature: 73.7 °F 43.7 °F 57.1 °F
Dew Point: 46.1 °F 39.0 °F 42.4 °F
Humidity: 87% 33% 61%
Wind Speed: 4.6mph 0.0mph 2.1mph
Wind Gust: 4.6mph - -
Wind- - SSW
Pressure: 30.05 in 29.97 in -
Precipitation: 0.00 in    
Historical Graphs
 
 
Tabular Data for March 13, 2012
Time Temperature Dew Point Pressure Wind Wind Speed Wind Gust Humidity Rainfall Rate (Hourly)
00:02 49.1 °F 40.8 °F 30.02 in Calm     73% 0.00 in
00:07 48.9 °F 40.6 °F 30.02 in Calm     73% 0.00 in
00:12 48.9 °F 40.6 °F 30.01 in Calm     73% 0.00 in
00:17 48.9 °F 40.6 °F 30.02 in Calm     73% 0.00 in
00:22 48.8 °F 40.9 °F 30.02 in Calm     74% 0.00 in
00:27 49.1 °F 40.8 °F 30.02 in Calm     73% 0.00 in
00:32 49.0 °F 41.1 °F 30.02 in Calm     74% 0.00 in
00:37 48.8 °F 40.5 °F 30.02 in Calm     73% 0.00 in
00:42 48.7 °F 40.8 °F 30.02 in Calm     74% 0.00 in
00:47 48.5 °F 40.6 °F 30.02 in Calm     74% 0.00 in
00:52 48.4 °F 40.5 °F 30.02 in Calm     74% 0.00 in
00:57 48.3 °F 40.7 °F 30.02 in Calm     75% 0.00 in
01:02 48.3 °F 40.7 °F 30.02 in Calm     75% 0.00 in
01:07 48.1 °F 40.5 °F 30.02 in Calm     75% 0.00 in
01:12 47.9 °F 40.7 °F 30.02 in Calm     76% 0.00 in
01:17 48.0 °F 40.8 °F 30.02 in Calm     76% 0.00 in
01:22 48.0 °F 40.8 °F 30.02 in Calm     76% 0.00 in
01:27 48.1 °F 40.9 °F 30.02 in Calm     76% 0.00 in
01:32 48.2 °F 41.0 °F 30.02 in Calm     76% 0.00 in
01:38 48.1 °F 40.5 °F 30.02 in Calm     75% 0.00 in
01:43 48.2 °F 40.6 °F 30.02 in Calm     75% 0.00 in
01:48 48.0 °F 40.5 °F 30.02 in Calm     75% 0.00 in
01:53 48.1 °F 40.9 °F 30.02 in Calm     76% 0.00 in
01:58 48.3 °F 40.7 °F 30.02 in Calm     75% 0.00 in
02:03 48.4 °F 40.8 °F 30.02 in Calm     75% 0.00 in
02:08 48.5 °F 40.9 °F 30.01 in Calm     75% 0.00 in
02:13 48.7 °F 41.1 °F 30.01 in Calm     75% 0.00 in
02:18 48.9 °F 41.3 °F 30.01 in Calm     75% 0.00 in
02:23 49.2 °F 41.3 °F 30.01 in Calm     74% 0.00 in
02:28 49.3 °F 41.4 °F 30.01 in Calm     74% 0.00 in
02:33 49.5 °F 41.2 °F 30.01 in Calm     73% 0.00 in
02:38 49.8 °F 41.1 °F 30.01 in Calm     72% 0.00 in
02:43 50.0 °F 41.3 °F 30.01 in Calm     72% 0.00 in
02:48 50.1 °F 41.1 °F 30.01 in Calm     71% 0.00 in
02:53 50.1 °F 41.1 °F 30.01 in Calm     71% 0.00 in
02:58 50.1 °F 41.4 °F 30.01 in Calm     72% 0.00 in
03:03 50.2 °F 41.5 °F 30.01 in Calm     72% 0.00 in
03:08 50.4 °F 41.3 °F 30.01 in Calm     71% 0.00 in
03:13 50.6 °F 41.5 °F 30.01 in Calm     71% 0.00 in
03:18 50.6 °F 41.5 °F 30.01 in Calm     71% 0.00 in
03:23 50.6 °F 41.5 °F 30.01 in Calm     71% 0.00 in
03:28 50.6 °F 41.5 °F 30.01 in Calm     71% 0.00 in
03:33 50.5 °F 41.4 °F 30.01 in Calm     71% 0.00 in
03:38 50.3 °F 41.3 °F 30.00 in Calm     71% 0.00 in
03:43 50.1 °F 41.1 °F 30.00 in Calm     71% 0.00 in
03:48 49.8 °F 41.1 °F 30.00 in Calm     72% 0.00 in
03:53 49.5 °F 40.8 °F 30.00 in Calm     72% 0.00 in
03:58 49.2 °F 40.9 °F 30.00 in Calm     73% 0.00 in
04:03 49.0 °F 40.7 °F 30.00 in Calm     73% 0.00 in
04:08 48.7 °F 40.8 °F 30.00 in Calm     74% 0.00 in
04:13 48.4 °F 40.5 °F 30.00 in Calm     74% 0.00 in
04:18 48.1 °F 40.5 °F 30.00 in Calm     75% 0.00 in
04:23 47.9 °F 40.4 °F 30.00 in Calm     75% 0.00 in
04:28 47.6 °F 40.4 °F 30.00 in Calm     76% 0.00 in
04:33 47.4 °F 40.2 °F 30.00 in Calm     76% 0.00 in
04:38 47.0 °F 40.2 °F 29.99 in Calm     77% 0.00 in
04:43 46.6 °F 40.1 °F 29.99 in Calm     78% 0.00 in
04:48 46.2 °F 39.7 °F 29.99 in Calm     78% 0.00 in
04:53 45.8 °F 39.3 °F 29.99 in Calm     78% 0.00 in
04:58 45.4 °F 39.3 °F 29.99 in Calm     79% 0.00 in
05:03 45.1 °F 39.3 °F 29.99 in Calm     80% 0.00 in
05:08 44.8 °F 39.3 °F 29.99 in Calm     81% 0.00 in
05:13 44.6 °F 39.1 °F 29.99 in Calm     81% 0.00 in
05:18 44.4 °F 39.2 °F 29.99 in Calm     82% 0.00 in
05:23 44.1 °F 39.0 °F 29.99 in Calm     82% 0.00 in
05:28 44.1 °F 39.3 °F 29.99 in Calm     83% 0.00 in
05:33 44.1 °F 39.6 °F 29.99 in Calm     84% 0.00 in
05:38 44.1 °F 39.6 °F 29.99 in Calm     84% 0.00 in
05:44 44.1 °F 39.6 °F 29.99 in Calm     84% 0.00 in
05:49 44.1 °F 39.6 °F 29.99 in Calm     84% 0.00 in
05:54 44.0 °F 39.5 °F 29.99 in Calm     84% 0.00 in
05:59 43.9 °F 39.4 °F 29.99 in Calm     84% 0.00 in
06:04 43.8 °F 39.6 °F 29.99 in Calm     85% 0.00 in
06:09 43.8 °F 39.9 °F 29.99 in Calm     86% 0.00 in
06:14 43.8 °F 39.6 °F 29.99 in Calm     85% 0.00 in
06:19 43.9 °F 40.0 °F 29.99 in Calm     86% 0.00 in
06:24 43.9 °F 40.0 °F 29.99 in Calm     86% 0.00 in
06:29 43.9 °F 40.0 °F 30.00 in Calm     86% 0.00 in
06:34 43.9 °F 40.0 °F 30.00 in Calm     86% 0.00 in
06:39 43.9 °F 40.0 °F 30.00 in Calm     86% 0.00 in
06:44 43.9 °F 40.0 °F 30.00 in Calm     86% 0.00 in
06:49 43.9 °F 40.0 °F 30.00 in Calm     86% 0.00 in
06:54 44.0 °F 40.1 °F 30.00 in Calm     86% 0.00 in
06:59 44.1 °F 40.2 °F 30.00 in Calm     86% 0.00 in
07:04 44.2 °F 40.0 °F 30.00 in Calm     85% 0.00 in
07:09 44.1 °F 39.9 °F 30.00 in Calm     85% 0.00 in
07:14 44.3 °F 40.4 °F 30.01 in Calm     86% 0.00 in
07:19 44.3 °F 40.1 °F 30.00 in Calm     85% 0.00 in
07:24 44.3 °F 40.1 °F 30.01 in Calm     85% 0.00 in
07:29 44.1 °F 39.6 °F 30.01 in Calm     84% 0.00 in
07:34 43.9 °F 39.4 °F 30.01 in Calm     84% 0.00 in
07:39 43.8 °F 39.9 °F 30.01 in Calm     86% 0.00 in
07:44 43.7 °F 39.8 °F 30.01 in Calm     86% 0.00 in
07:49 43.9 °F 40.3 °F 30.01 in Calm     87% 0.00 in
07:54 44.2 °F 40.6 °F 30.01 in Calm     87% 0.00 in
07:59 44.5 °F 40.9 °F 30.02 in Calm     87% 0.00 in
08:04 44.7 °F 41.1 °F 30.02 in Calm     87% 0.00 in
08:09 45.1 °F 41.5 °F 30.02 in Calm     87% 0.00 in
08:14 45.6 °F 41.7 °F 30.02 in Calm     86% 0.00 in
08:19 46.0 °F 42.0 °F 30.03 in Calm     86% 0.00 in
08:24 46.7 °F 42.4 °F 30.03 in Calm     85% 0.00 in
08:29 47.5 °F 42.9 °F 30.03 in Calm     84% 0.00 in
08:34 48.2 °F 43.0 °F 30.03 in Calm     82% 0.00 in
08:39 48.9 °F 43.3 °F 30.03 in Calm     81% 0.00 in
08:44 49.7 °F 43.5 °F 30.03 in Calm     79% 0.00 in
08:49 50.4 °F 43.1 °F 30.04 in Calm     76% 0.00 in
08:54 51.1 °F 43.4 °F 30.04 in Calm     75% 0.00 in
08:59 51.6 °F 43.6 °F 30.04 in Calm     74% 0.00 in
09:04 52.2 °F 43.4 °F 30.04 in Calm     72% 0.00 in
09:09 52.8 °F 43.7 °F 30.04 in Calm     71% 0.00 in
09:14 53.3 °F 43.8 °F 30.04 in Calm     70% 0.00 in
09:19 53.8 °F 43.5 °F 30.04 in East 1.1 mph   68% 0.00 in
09:24 54.2 °F 43.5 °F 30.05 in Calm   0.2 mph 67% 0.00 in
09:30 54.6 °F 43.5 °F 30.05 in North 1.1 mph   66% 0.00 in
09:35 55.1 °F 43.5 °F 30.05 in Calm     65% 0.00 in
09:40 55.5 °F 43.1 °F 30.05 in Calm     63% 0.00 in
09:45 55.8 °F 43.0 °F 30.05 in SW 2.3 mph 2.3 mph 62% 0.00 in
09:50 56.0 °F 43.2 °F 30.05 in SSE 1.1 mph   62% 0.00 in
09:55 56.3 °F 43.0 °F 30.05 in Calm     61% 0.00 in
10:00 56.5 °F 43.2 °F 30.05 in SSW 1.1 mph 1.1 mph 61% 0.00 in
10:05 56.7 °F 43.0 °F 30.05 in Calm     60% 0.00 in
10:10 57.0 °F 42.8 °F 30.05 in West 1.1 mph 1.1 mph 59% 0.00 in
10:15 57.3 °F 42.6 °F 30.05 in Calm     58% 0.00 in
10:20 57.6 °F 42.9 °F 30.05 in West 1.1 mph 1.1 mph 58% 0.00 in
10:25 57.9 °F 42.8 °F 30.05 in South 1.1 mph   57% 0.00 in
10:31 58.0 °F 43.3 °F 30.05 in Calm     58% 0.00 in
10:36 58.3 °F 43.6 °F 30.05 in Calm     58% 0.00 in
10:41 58.8 °F 43.1 °F 30.05 in SSW 2.3 mph 2.3 mph 56% 0.00 in
10:46 59.0 °F 42.8 °F 30.05 in West 1.1 mph 1.1 mph 55% 0.00 in
10:51 59.1 °F 42.9 °F 30.05 in North 1.1 mph 1.1 mph 55% 0.00 in
10:56 59.3 °F 43.6 °F 30.05 in NNE 1.1 mph 1.1 mph 56% 0.00 in
11:01 59.6 °F 43.4 °F 30.05 in SW 1.1 mph 1.1 mph 55% 0.00 in
11:06 60.2 °F 43.5 °F 30.05 in Calm     54% 0.00 in
11:11 60.6 °F 43.4 °F 30.05 in NE 2.3 mph 2.3 mph 53% 0.00 in
11:16 61.0 °F 43.2 °F 30.05 in NNE 2.0 mph 2.0 mph 52% 0.00 in
11:21 61.6 °F 42.8 °F 30.04 in SSW 1.1 mph 1.1 mph 50% 0.00 in
11:26 62.0 °F 43.7 °F 30.04 in SW 1.0 mph   51% 0.00 in
11:31 62.8 °F 43.9 °F 30.04 in West 1.1 mph 1.1 mph 50% 0.00 in
11:36 63.2 °F 44.2 °F 30.04 in WNW 3.5 mph 3.5 mph 50% 0.00 in
11:41 63.6 °F 43.5 °F 30.04 in Calm     48% 0.00 in
11:46 63.6 °F 43.5 °F 30.03 in WNW 3.0 mph 3.0 mph 48% 0.00 in
11:51 64.2 °F 43.5 °F 30.03 in WSW 1.1 mph 1.1 mph 47% 0.00 in
11:56 64.8 °F 42.9 °F 30.03 in ENE 4.0 mph 4.0 mph 45% 0.00 in
12:01 64.4 °F 44.3 °F 30.03 in NNW 1.1 mph 1.1 mph 48% 0.00 in
12:06 65.2 °F 43.9 °F 30.03 in NNW 2.0 mph 2.0 mph 46% 0.00 in
12:11 65.7 °F 44.9 °F 30.02 in NNW 3.0 mph 3.0 mph 47% 0.00 in
12:17 66.2 °F 43.6 °F 30.02 in West 3.5 mph 3.5 mph 44% 0.00 in
12:22 66.6 °F 44.0 °F 30.02 in WNW 2.3 mph 2.3 mph 44% 0.00 in
12:27 67.0 °F 43.8 °F 30.02 in West 1.1 mph 1.1 mph 43% 0.00 in
12:32 67.2 °F 43.3 °F 30.02 in SSW 3.5 mph 3.5 mph 42% 0.00 in
12:37 67.1 °F 44.4 °F 30.02 in Calm     44% 0.00 in
12:42 67.7 °F 45.0 °F 30.01 in SE 1.1 mph   44% 0.00 in
12:47 68.0 °F 44.0 °F 30.01 in NE 1.1 mph 1.1 mph 42% 0.00 in
12:52 68.0 °F 44.7 °F 30.01 in SSW 2.3 mph 2.3 mph 43% 0.00 in
12:57 68.3 °F 44.9 °F 30.01 in SSW 2.3 mph 2.3 mph 43% 0.00 in
13:02 68.6 °F 43.9 °F 30.01 in SSW 1.1 mph 1.1 mph 41% 0.00 in
13:07 69.2 °F 43.8 °F 30.01 in North 3.0 mph 3.0 mph 40% 0.00 in
13:12 69.2 °F 43.8 °F 30.01 in SW 2.3 mph 2.3 mph 40% 0.00 in
13:17 69.4 °F 44.7 °F 30.00 in West 2.3 mph 2.3 mph 41% 0.00 in
13:22 69.8 °F 44.4 °F 30.00 in SW 2.3 mph 2.3 mph 40% 0.00 in
13:28 69.9 °F 43.8 °F 30.00 in SW 3.5 mph 3.5 mph 39% 0.00 in
13:33 69.8 °F 45.7 °F 30.00 in SSW 2.3 mph 2.3 mph 42% 0.00 in
13:38 70.3 °F 46.1 °F 30.00 in South 1.1 mph 1.1 mph 42% 0.00 in
13:43 71.0 °F 45.5 °F 30.00 in SSE 3.0 mph 3.0 mph 40% 0.00 in
13:48 70.7 °F 44.5 °F 30.00 in SSW 2.3 mph 2.3 mph 39% 0.00 in
13:53 70.9 °F 45.4 °F 30.00 in NW 3.5 mph 3.5 mph 40% 0.00 in
13:58 70.7 °F 44.5 °F 30.00 in WNW 3.5 mph 3.5 mph 39% 0.00 in
14:03 70.3 °F 44.8 °F 30.00 in East 4.6 mph 4.6 mph 40% 0.00 in
14:08 70.0 °F 44.6 °F 29.99 in WSW 3.5 mph 3.5 mph 40% 0.00 in
14:13 70.2 °F 44.7 °F 29.99 in SSW 2.3 mph 2.3 mph 40% 0.00 in
14:18 70.6 °F 44.4 °F 29.99 in West 4.0 mph 4.0 mph 39% 0.00 in
14:23 70.4 °F 43.6 °F 29.99 in West 4.6 mph 4.6 mph 38% 0.00 in
14:28 70.1 °F 44.0 °F 29.99 in SSW 2.3 mph 2.3 mph 39% 0.00 in
14:33 70.2 °F 44.1 °F 29.99 in NW 2.3 mph 2.3 mph 39% 0.00 in
14:38 70.3 °F 44.8 °F 29.98 in NW 2.3 mph 2.3 mph 40% 0.00 in
14:43 70.7 °F 43.1 °F 29.98 in Calm     37% 0.00 in
14:48 71.0 °F 44.8 °F 29.98 in West 3.5 mph 3.5 mph 39% 0.00 in
14:53 71.2 °F 44.3 °F 29.98 in NNW 1.1 mph 1.1 mph 38% 0.00 in
14:58 71.1 °F 44.9 °F 29.98 in NE 3.5 mph 3.5 mph 39% 0.00 in
15:03 71.1 °F 44.2 °F 29.98 in East 1.1 mph 1.1 mph 38% 0.00 in
15:08 71.6 °F 43.2 °F 29.98 in East 1.1 mph 1.1 mph 36% 0.00 in
15:13 71.9 °F 43.5 °F 29.98 in West 2.3 mph 2.3 mph 36% 0.00 in
15:18 71.4 °F 43.0 °F 29.98 in NNW 2.3 mph 2.3 mph 36% 0.00 in
15:23 71.2 °F 44.3 °F 29.98 in West 2.3 mph 2.3 mph 38% 0.00 in
15:28 71.2 °F 43.6 °F 29.98 in NW 2.3 mph 2.3 mph 37% 0.00 in
15:33 71.4 °F 43.8 °F 29.98 in NW 3.5 mph 3.5 mph 37% 0.00 in
15:38 71.5 °F 43.8 °F 29.98 in NNE 2.0 mph 2.0 mph 37% 0.00 in
15:43 71.6 °F 41.7 °F 29.98 in SSW 1.1 mph 1.1 mph 34% 0.00 in
15:48 72.2 °F 43.0 °F 29.98 in Calm     35% 0.00 in
15:53 72.8 °F 44.3 °F 29.98 in North 1.1 mph 1.1 mph 36% 0.00 in
15:58 73.1 °F 43.1 °F 29.98 in ENE 2.3 mph 2.3 mph 34% 0.00 in
16:03 72.9 °F 43.6 °F 29.97 in NNW 3.5 mph 3.5 mph 35% 0.00 in
16:08 72.7 °F 43.5 °F 29.97 in North 3.5 mph 3.5 mph 35% 0.00 in
16:13 72.6 °F 42.6 °F 29.98 in North 4.6 mph 4.6 mph 34% 0.00 in
16:18 72.7 °F 41.9 °F 29.97 in East 1.1 mph   33% 0.00 in
16:23 73.0 °F 42.2 °F 29.97 in WNW 1.1 mph 1.1 mph 33% 0.00 in
16:28 72.7 °F 43.5 °F 29.97 in East 1.1 mph 1.1 mph 35% 0.00 in
16:33 72.2 °F 43.0 °F 29.97 in SSW 1.1 mph   35% 0.00 in
16:38 72.7 °F 42.7 °F 29.97 in SE 1.1 mph 1.1 mph 34% 0.00 in
16:43 73.6 °F 42.7 °F 29.97 in WNW 1.0 mph   33% 0.00 in
16:48 73.7 °F 42.8 °F 29.97 in North 3.0 mph 3.0 mph 33% 0.00 in
16:53 73.0 °F 42.2 °F 29.97 in NE 2.3 mph 2.3 mph 33% 0.00 in
16:58 72.2 °F 43.0 °F 29.97 in NNW 3.5 mph 3.5 mph 35% 0.00 in
17:03 71.7 °F 42.6 °F 29.97 in NNW 1.1 mph 1.1 mph 35% 0.00 in
17:08 71.3 °F 42.2 °F 29.97 in East 1.1 mph 1.1 mph 35% 0.00 in
17:13 70.8 °F 42.5 °F 29.97 in East 2.3 mph 2.3 mph 36% 0.00 in
17:18 69.9 °F 42.4 °F 29.97 in ENE 1.1 mph 1.1 mph 37% 0.00 in
17:23 69.1 °F 42.4 °F 29.97 in East 3.5 mph 3.5 mph 38% 0.00 in
17:28 68.8 °F 42.8 °F 29.97 in NNW 3.5 mph 3.5 mph 39% 0.00 in
17:33 68.5 °F 42.6 °F 29.97 in NNW 3.5 mph 3.5 mph 39% 0.00 in
17:38 68.2 °F 42.9 °F 29.97 in NW 2.3 mph 2.3 mph 40% 0.00 in
17:43 68.0 °F 43.4 °F 29.97 in SW 2.3 mph 2.3 mph 41% 0.00 in
17:48 67.8 °F 44.5 °F 29.97 in West 1.1 mph 1.1 mph 43% 0.00 in
17:53 67.6 °F 44.3 °F 29.97 in WSW 1.1 mph   43% 0.00 in
17:58 67.3 °F 44.0 °F 29.97 in NW 2.0 mph 2.0 mph 43% 0.00 in
18:03 67.1 °F 43.8 °F 29.97 in NW 2.3 mph 2.3 mph 43% 0.00 in
18:08 66.9 °F 44.3 °F 29.97 in West 1.1 mph 1.1 mph 44% 0.00 in
18:13 66.9 °F 43.7 °F 29.97 in North 2.0 mph 2.0 mph 43% 0.00 in
18:18 66.8 °F 44.2 °F 29.97 in NNW 1.1 mph   44% 0.00 in
18:23 66.8 °F 44.2 °F 29.97 in WNW 2.0 mph 2.0 mph 44% 0.00 in
18:28 66.7 °F 43.5 °F 29.97 in North 2.3 mph 2.3 mph 43% 0.00 in
18:34 66.5 °F 43.9 °F 29.97 in North 1.1 mph 1.1 mph 44% 0.00 in
18:39 66.3 °F 43.7 °F 29.98 in NW 1.1 mph 1.1 mph 44% 0.00 in
18:44 66.1 °F 43.5 °F 29.98 in Calm     44% 0.00 in
18:49 65.8 °F 43.3 °F 29.98 in Calm     44% 0.00 in
18:54 65.6 °F 43.1 °F 29.98 in Calm     44% 0.00 in
18:59 65.2 °F 42.7 °F 29.98 in Calm     44% 0.00 in
19:04 65.0 °F 42.5 °F 29.98 in Calm     44% 0.00 in
19:09 64.6 °F 42.8 °F 29.98 in Calm     45% 0.00 in
19:14 64.3 °F 42.5 °F 29.98 in Calm     45% 0.00 in
19:19 64.1 °F 42.3 °F 29.98 in Calm     45% 0.00 in
19:24 63.9 °F 42.1 °F 29.98 in Calm     45% 0.00 in
19:29 63.6 °F 42.4 °F 29.98 in Calm     46% 0.00 in
19:34 63.3 °F 42.2 °F 29.98 in Calm     46% 0.00 in
19:39 62.9 °F 42.4 °F 29.98 in Calm     47% 0.00 in
19:44 62.6 °F 41.5 °F 29.98 in Calm     46% 0.00 in
19:49 62.4 °F 41.3 °F 29.99 in Calm     46% 0.00 in
19:54 62.2 °F 41.2 °F 29.99 in Calm     46% 0.00 in
19:59 61.9 °F 42.0 °F 29.99 in Calm     48% 0.00 in
20:04 61.5 °F 42.2 °F 29.99 in Calm     49% 0.00 in
20:09 61.0 °F 42.2 °F 29.99 in Calm     50% 0.00 in
20:14 60.6 °F 42.4 °F 29.99 in Calm     51% 0.00 in
20:19 60.2 °F 42.5 °F 29.99 in Calm     52% 0.00 in
20:24 59.7 °F 42.5 °F 29.99 in Calm     53% 0.00 in
20:29 59.2 °F 43.0 °F 29.99 in Calm     55% 0.00 in
20:34 58.6 °F 42.5 °F 30.00 in Calm     55% 0.00 in
20:39 58.0 °F 41.9 °F 30.00 in Calm     55% 0.00 in
20:44 57.6 °F 42.0 °F 30.00 in Calm     56% 0.00 in
20:49 57.3 °F 42.2 °F 30.00 in Calm     57% 0.00 in
20:54 57.2 °F 42.5 °F 30.00 in Calm     58% 0.00 in
20:59 57.1 °F 42.5 °F 30.01 in Calm     58% 0.00 in
21:00 57.1 °F 42.5 °F 30.01 in Calm     58% 0.00 in
21:01 57.1 °F 42.5 °F 30.00 in Calm     58% 0.00 in
21:06 56.7 °F 42.5 °F 30.00 in Calm     59% 0.00 in
21:11 56.5 °F 42.8 °F 30.01 in Calm     60% 0.00 in
21:16 56.2 °F 42.5 °F 30.01 in Calm     60% 0.00 in
21:21 55.9 °F 42.6 °F 30.01 in Calm     61% 0.00 in
21:26 55.8 °F 42.5 °F 30.02 in Calm     61% 0.00 in
21:31 56.0 °F 42.3 °F 30.02 in Calm   0.1 mph 60% 0.00 in
21:37 56.1 °F 42.4 °F 30.02 in Calm     60% 0.00 in
21:42 56.4 °F 43.5 °F 30.02 in Calm     62% 0.00 in
21:47 56.5 °F 43.2 °F 30.02 in Calm     61% 0.00 in
21:52 56.2 °F 43.3 °F 30.03 in Calm     62% 0.00 in
21:57 55.9 °F 43.5 °F 30.03 in Calm     63% 0.00 in
22:02 55.5 °F 43.5 °F 30.03 in Calm     64% 0.00 in
22:07 55.1 °F 43.9 °F 30.03 in Calm     66% 0.00 in
22:12 54.8 °F 44.0 °F 30.03 in Calm     67% 0.00 in
22:17 54.4 °F 43.7 °F 30.03 in Calm     67% 0.00 in
22:22 54.1 °F 43.8 °F 30.04 in Calm     68% 0.00 in
22:27 53.9 °F 44.0 °F 30.04 in Calm     69% 0.00 in
22:32 53.6 °F 43.3 °F 30.04 in Calm     68% 0.00 in
22:37 53.3 °F 43.8 °F 30.04 in Calm     70% 0.00 in
22:42 53.0 °F 43.8 °F 30.04 in Calm     71% 0.00 in
22:47 52.6 °F 43.8 °F 30.04 in Calm     72% 0.00 in
22:52 52.3 °F 43.5 °F 30.04 in Calm     72% 0.00 in
22:57 52.1 °F 43.7 °F 30.04 in Calm     73% 0.00 in
23:02 51.9 °F 43.9 °F 30.04 in Calm     74% 0.00 in
23:07 51.6 °F 43.6 °F 30.04 in Calm     74% 0.00 in
23:12 51.4 °F 43.7 °F 30.04 in Calm     75% 0.00 in
23:17 51.3 °F 43.3 °F 30.04 in Calm     74% 0.00 in
23:22 51.0 °F 43.0 °F 30.04 in Calm     74% 0.00 in
23:27 50.7 °F 43.1 °F 30.04 in Calm     75% 0.00 in
23:32 50.4 °F 43.1 °F 30.04 in Calm     76% 0.00 in
23:37 50.4 °F 43.8 °F 30.04 in West 1.1 mph 1.1 mph 78% 0.00 in
23:42 51.3 °F 44.0 °F 30.04 in Calm     76% 0.00 in
23:47 51.4 °F 43.7 °F 30.04 in Calm     75% 0.00 in
23:52 51.2 °F 43.5 °F 30.04 in Calm     75% 0.00 in
23:57 51.0 °F 43.0 °F 30.05 in Calm     74% 0.00 in
Compliments of Weather Underground